| time (UTC) | temp F | wind direction | speed MPH | gust MPH | rain 1hr in | rain 24hr in | rain mn in | humidity % | barometer mb |
| 20260902161653 | 68 | 133 | 0.0 | 0.0 | 0.00 | 0.00 | 0.00 | 76 | 1015.4 |
| 20260902161605 | 68 | 203 | 1.0 | 4.0 | 0.00 | 0.00 | 0.00 | 75 | 1015.5 |
| 20260902160121 | 67 | 205 | 1.0 | 4.0 | 0.00 | 0.00 | 0.00 | 77 | 1015.4 |
| 20260902154506 | 65 | 212 | 0.0 | 2.0 | 0.00 | 0.00 | 0.00 | 80 | 1015.3 |
| 20260902154423 | 65 | 248 | 0.0 | 1.0 | 0.00 | 0.00 | 0.00 | 81 | 1015.3 |
| 20260902153103 | 63 | 208 | 0.0 | 2.0 | 0.00 | 0.00 | 0.00 | 85 | 1015.2 |
| 20260902152310 | 63 | 224 | 0.0 | 0.0 | 0.00 | 0.00 | 0.00 | 86 | 1015.3 |
| 20260902151503 | 61 | 233 | 0.0 | 1.0 | 0.00 | 0.00 | 0.00 | 86 | 1015.2 |
| 20260902151322 | 62 | 233 | 0.0 | 0.0 | 0.00 | 0.00 | 0.00 | 86 | 1015.2 |
| 20260902150306 | 60 | 221 | 0.0 | 0.0 | 0.00 | 0.00 | 0.00 | 88 | 1015.2 |
| 20260902150003 | 59 | 221 | 0.0 | 1.0 | 0.00 | 0.01 | 0.00 | 89 | 1015.3 |
| 20260902145232 | 59 | 221 | 0.0 | 0.0 | 0.00 | 0.00 | 0.00 | 91 | 1015.2 |
| 20260902144602 | 59 | 221 | 0.0 | 1.0 | 0.00 | 0.01 | 0.00 | 92 | 1015.2 |
| 20260902144230 | 59 | 221 | 0.0 | 0.0 | 0.00 | 0.00 | 0.00 | 92 | 1015.1 |
| 20260902143226 | 59 | 221 | 0.0 | 0.0 | 0.00 | 0.01 | 0.00 | 93 | 1015.0 |
| 20260902143003 | 58 | 221 | 0.0 | 1.0 | 0.00 | 0.01 | 0.00 | 93 | 1015.0 |
| 20260902142230 | 59 | 340 | 0.0 | 0.0 | 0.00 | 0.01 | 0.00 | 94 | 1015.0 |
| 20260902141602 | 58 | 278 | 0.0 | 1.0 | 0.00 | 0.01 | 0.00 | 95 | 1015.0 |
| 20260902141235 | 58 | 354 | 0.0 | 0.0 | 0.00 | 0.01 | 0.00 | 93 | 1014.8 |
| 20260902140216 | 58 | 353 | 0.0 | 0.0 | 0.00 | 0.01 | 0.00 | 93 | 1014.6 |
| 20260902135239 | 58 | 353 | 0.0 | 0.0 | 0.00 | 0.01 | 0.00 | 93 | 1014.4 |
| 20260902134503 | 58 | 352 | 0.0 | 1.0 | 0.00 | 0.01 | 0.00 | 93 | 1014.5 |
| 20260902134217 | 58 | 354 | 0.0 | 0.0 | 0.00 | 0.01 | 0.00 | 93 | 1014.4 |
| 20260902133233 | 58 | 352 | 0.0 | 0.0 | 0.00 | 0.01 | 0.00 | 92 | 1014.5 |
| 20260902133107 | 58 | 352 | 0.0 | 1.0 | 0.00 | 0.01 | 0.00 | 92 | 1014.5 |
| 20260902132236 | 58 | 352 | 0.0 | 0.0 | 0.00 | 0.01 | 0.00 | 93 | 1014.4 |
| 20260902131503 | 58 | 13 | 0.0 | 1.0 | 0.00 | 0.01 | 0.00 | 93 | 1014.4 |
| 20260902131207 | 59 | 13 | 0.0 | 0.0 | 0.00 | 0.01 | 0.00 | 93 | 1014.4 |
| 20260902130209 | 58 | 18 | 0.0 | 0.0 | 0.00 | 0.01 | 0.00 | 93 | 1014.4 |
| 20260902130003 | 58 | 18 | 0.0 | 1.0 | 0.00 | 0.01 | 0.00 | 92 | 1014.5 |
| 20260902125203 | 59 | 17 | 0.0 | 0.0 | 0.00 | 0.01 | 0.00 | 94 | 1014.5 |
| 20260902124604 | 58 | 18 | 0.0 | 1.0 | 0.00 | 0.01 | 0.00 | 93 | 1014.6 |
| 20260902124138 | 59 | 18 | 0.0 | 0.0 | 0.00 | 0.01 | 0.00 | 93 | 1014.5 |
| 20260902123146 | 58 | 18 | 0.0 | 0.0 | 0.00 | 0.01 | 0.00 | 92 | 1014.5 |
| 20260902123002 | 58 | 18 | 0.0 | 1.0 | 0.00 | 0.01 | 0.00 | 92 | 1014.6 |
| 20260902121603 | 58 | 17 | 0.0 | 1.0 | 0.00 | 0.01 | 0.00 | 92 | 1014.7 |
| 20260902115910 | 59 | 17 | 0.0 | 0.0 | 0.00 | 0.01 | 0.00 | 92 | 1014.7 |
| 20260902114906 | 59 | 23 | 0.0 | 0.0 | 0.00 | 0.01 | 0.00 | 92 | 1014.6 |
| 20260902114505 | 59 | 23 | 1.0 | 1.0 | 0.00 | 0.01 | 0.00 | 92 | 1014.7 |
| 20260902113107 | 59 | 23 | 0.0 | 1.0 | 0.00 | 0.01 | 0.00 | 92 | 1014.7 |
| 20260902112726 | 60 | 23 | 0.0 | 0.0 | 0.00 | 0.01 | 0.00 | 92 | 1014.6 |
| 20260902111713 | 59 | 33 | 0.0 | 0.0 | 0.00 | 0.01 | 0.00 | 92 | 1014.6 |
| 20260902111504 | 59 | 34 | 0.0 | 1.0 | 0.00 | 0.01 | 0.00 | 91 | 1014.7 |
| 20260902110008 | 59 | 34 | 1.0 | 1.0 | 0.00 | 0.01 | 0.00 | 91 | 1014.8 |
| 20260902104623 | 60 | 34 | 0.0 | 1.0 | 0.00 | 0.01 | 0.00 | 90 | 1014.8 |
| 20260902103259 | 61 | 33 | 0.0 | 0.0 | 0.00 | 0.01 | 0.00 | 90 | 1014.6 |
| 20260902103003 | 60 | 34 | 0.0 | 1.0 | 0.00 | 0.01 | 0.00 | 89 | 1014.7 |
| 20260902102323 | 61 | 34 | 0.0 | 3.0 | 0.00 | 0.01 | 0.00 | 89 | 1014.7 |
| 20260902101606 | 61 | 33 | 1.0 | 4.0 | 0.00 | 0.01 | 0.00 | 89 | 1014.8 |
| 20260902100226 | 62 | 41 | 1.0 | 2.0 | 0.00 | 0.01 | 0.00 | 89 | 1014.7 |
| 20260902100130 | 61 | 39 | 1.0 | 3.0 | 0.00 | 0.01 | 0.00 | 89 | 1014.8 |
| 20260902095238 | 62 | 35 | 1.0 | 2.0 | 0.00 | 0.01 | 0.00 | 89 | 1014.7 |
| 20260902094502 | 61 | 34 | 1.0 | 2.0 | 0.00 | 0.01 | 0.00 | 89 | 1014.8 |
| 20260902094235 | 61 | 34 | 0.0 | 2.0 | 0.00 | 0.01 | 0.00 | 89 | 1014.8 |
| 20260902093252 | 61 | 32 | 0.0 | 2.0 | 0.00 | 0.01 | 0.00 | 89 | 1014.7 |
| 20260902093125 | 61 | 32 | 1.0 | 3.0 | 0.00 | 0.01 | 0.00 | 89 | 1014.8 |
| 20260902092231 | 61 | 42 | 0.0 | 0.0 | 0.00 | 0.01 | 0.00 | 88 | 1014.7 |
| 20260902091503 | 61 | 42 | 1.0 | 3.0 | 0.00 | 0.01 | 0.00 | 88 | 1014.8 |
| 20260902091227 | 62 | 41 | 0.0 | 2.0 | 0.00 | 0.01 | 0.00 | 88 | 1014.7 |
| 20260902090158 | 62 | 51 | 1.0 | 2.0 | 0.00 | 0.01 | 0.00 | 88 | 1014.6 |
| 20260902090005 | 61 | 39 | 1.0 | 3.0 | 0.00 | 0.01 | 0.00 | 88 | 1014.6 |
| 20260902085133 | 62 | 46 | 0.0 | 2.0 | 0.00 | 0.01 | 0.00 | 88 | 1014.7 |
| 20260902084607 | 62 | 46 | 1.0 | 3.0 | 0.00 | 0.01 | 0.00 | 88 | 1014.8 |
| 20260902084059 | 62 | 30 | 1.0 | 2.0 | 0.00 | 0.01 | 0.00 | 89 | 1014.8 |
| 20260902083108 | 62 | 41 | 0.0 | 2.0 | 0.00 | 0.01 | 0.00 | 89 | 1014.8 |
| 20260902083005 | 61 | 38 | 0.0 | 3.0 | 0.00 | 0.01 | 0.00 | 90 | 1014.9 |
| 20260902082101 | 62 | 41 | 1.0 | 2.0 | 0.00 | 0.01 | 0.00 | 90 | 1014.8 |
| 20260902081619 | 61 | 42 | 1.0 | 3.0 | 0.00 | 0.01 | 0.00 | 89 | 1014.9 |
| 20260902081043 | 62 | 43 | 0.0 | 2.0 | 0.00 | 0.01 | 0.00 | 90 | 1014.9 |
| 20260902080109 | 61 | 44 | 0.0 | 3.0 | 0.00 | 0.01 | 0.00 | 89 | 1014.8 |
| 20260902073801 | 61 | 42 | 0.0 | 2.0 | 0.00 | 0.01 | 0.00 | 89 | 1014.7 |
| 20260902073103 | 61 | 43 | 0.0 | 3.0 | 0.00 | 0.01 | 0.00 | 88 | 1014.8 |
| 20260902072809 | 61 | 42 | 0.0 | 2.0 | 0.00 | 0.01 | 0.00 | 89 | 1014.7 |
| 20260902071824 | 61 | 34 | 0.0 | 1.0 | 0.00 | 0.01 | 0.00 | 88 | 1014.7 |
| 20260902071503 | 60 | 34 | 0.0 | 1.0 | 0.00 | 0.01 | 0.00 | 87 | 1014.7 |
| 20260902070835 | 61 | 34 | 0.0 | 0.0 | 0.00 | 0.01 | 0.00 | 86 | 1014.4 |
| 20260902070002 | 61 | 34 | 0.0 | 2.0 | 0.00 | 0.01 | 0.01 | 85 | 1014.5 |
| 20260902065820 | 61 | 34 | 0.0 | 1.0 | 0.00 | 0.01 | 0.01 | 85 | 1014.4 |
| 20260902064756 | 61 | 33 | 0.0 | 1.0 | 0.00 | 0.01 | 0.01 | 85 | 1014.3 |
| 20260902064611 | 61 | 32 | 1.0 | 2.0 | 0.00 | 0.01 | 0.01 | 85 | 1014.4 |
| 20260902063729 | 61 | 32 | 0.0 | 0.0 | 0.00 | 0.01 | 0.01 | 82 | 1014.3 |
| 20260902063002 | 61 | 32 | 0.0 | 2.0 | 0.00 | 0.01 | 0.01 | 83 | 1014.4 |
| 20260902062727 | 61 | 32 | 1.0 | 1.0 | 0.00 | 0.01 | 0.01 | 83 | 1014.3 |
| 20260902061706 | 61 | 38 | 0.0 | 1.0 | 0.00 | 0.01 | 0.01 | 82 | 1014.3 |
| 20260902061602 | 61 | 38 | 0.0 | 2.0 | 0.00 | 0.01 | 0.01 | 82 | 1014.3 |
| 20260902060642 | 61 | 6 | 0.0 | 1.0 | 0.00 | 0.01 | 0.01 | 82 | 1014.2 |
| 20260902060135 | 60 | 6 | 1.0 | 2.0 | 0.00 | 0.01 | 0.01 | 82 | 1014.2 |
| 20260902054502 | 60 | 4 | 1.0 | 2.0 | 0.00 | 0.01 | 0.01 | 83 | 1014.2 |
| 20260902053356 | 61 | 359 | 0.0 | 0.0 | 0.00 | 0.01 | 0.01 | 82 | 1014.0 |
| 20260902053105 | 60 | 359 | 1.0 | 1.0 | 0.00 | 0.01 | 0.01 | 82 | 1014.1 |
| 20260902052348 | 61 | 355 | 0.0 | 0.0 | 0.00 | 0.01 | 0.01 | 80 | 1014.0 |
| 20260902051502 | 61 | 354 | 0.0 | 1.0 | 0.00 | 0.01 | 0.01 | 85 | 1014.1 |
| 20260902050233 | 62 | 48 | 0.0 | 0.0 | 0.00 | 0.01 | 0.01 | 82 | 1014.0 |
| 20260902050007 | 61 | 48 | 0.0 | 1.0 | 0.00 | 0.01 | 0.01 | 83 | 1014.1 |
| 20260902045213 | 62 | 48 | 0.0 | 0.0 | 0.00 | 0.01 | 0.01 | 82 | 1014.1 |
| 20260902044602 | 61 | 48 | 0.0 | 1.0 | 0.00 | 0.01 | 0.01 | 82 | 1014.1 |
| 20260902044144 | 62 | 49 | 0.0 | 0.0 | 0.00 | 0.01 | 0.01 | 82 | 1014.0 |
| 20260902043110 | 61 | 51 | 0.0 | 1.0 | 0.00 | 0.01 | 0.01 | 82 | 1013.9 |
| 20260902043003 | 60 | 51 | 1.0 | 2.0 | 0.00 | 0.01 | 0.01 | 80 | 1013.9 |
| 20260902041602 | 61 | 217 | 0.0 | 1.0 | 0.00 | 0.01 | 0.01 | 80 | 1013.6 |
| 20260902040935 | 62 | 217 | 0.0 | 0.0 | 0.00 | 0.01 | 0.01 | 82 | 1013.4 |
| 20260902040103 | 61 | 217 | 0.0 | 1.0 | 0.00 | 0.01 | 0.01 | 78 | 1013.3 |
| 20260902035909 | 62 | 217 | 0.0 | 0.0 | 0.00 | 0.01 | 0.01 | 79 | 1013.3 |
| 20260902034503 | 63 | 217 | 0.0 | 1.0 | 0.00 | 0.01 | 0.01 | 80 | 1013.2 |
| 20260902033733 | 63 | 217 | 0.0 | 0.0 | 0.00 | 0.01 | 0.01 | 80 | 1013.0 |
| 20260902033117 | 63 | 217 | 0.0 | 1.0 | 0.00 | 0.01 | 0.01 | 81 | 1013.1 |
| 20260902032733 | 64 | 217 | 0.0 | 0.0 | 0.00 | 0.01 | 0.01 | 80 | 1013.1 |
| 20260902031503 | 64 | 217 | 0.0 | 1.0 | 0.00 | 0.01 | 0.01 | 79 | 1013.0 |
| 20260902030552 | 65 | 217 | 0.0 | 0.0 | 0.00 | 0.01 | 0.01 | 78 | 1013.0 |
| 20260902030003 | 65 | 217 | 0.0 | 1.0 | 0.00 | 0.01 | 0.01 | 78 | 1012.9 |
| 20260902025557 | 66 | 217 | 0.0 | 0.0 | 0.00 | 0.01 | 0.01 | 78 | 1012.8 |
| 20260902024620 | 67 | 217 | 0.0 | 1.0 | 0.00 | 0.01 | 0.01 | 77 | 1012.8 |
| 20260902024604 | 67 | 217 | 0.0 | 0.0 | 0.00 | 0.01 | 0.01 | 77 | 1012.8 |
| 20260902023552 | 68 | 211 | 0.0 | 2.0 | 0.00 | 0.01 | 0.01 | 76 | 1012.7 |
| 20260902023003 | 67 | 148 | 0.0 | 2.0 | 0.00 | 0.01 | 0.01 | 75 | 1012.6 |
| 20260902022526 | 68 | 148 | 0.0 | 0.0 | 0.00 | 0.01 | 0.01 | 75 | 1012.5 |
| 20260902021603 | 68 | 201 | 0.0 | 1.0 | 0.00 | 0.01 | 0.01 | 72 | 1012.6 |
| 20260902021509 | 69 | 225 | 0.0 | 0.0 | 0.00 | 0.01 | 0.01 | 72 | 1012.5 |
| 20260902020529 | 70 | 228 | 0.0 | 3.0 | 0.00 | 0.01 | 0.01 | 71 | 1012.5 |
| 20260902020139 | 69 | 240 | 1.0 | 3.0 | 0.00 | 0.01 | 0.01 | 70 | 1012.5 |
| 20260902015509 | 70 | 237 | 0.0 | 3.0 | 0.00 | 0.01 | 0.01 | 69 | 1012.5 |
| 20260902014507 | 71 | 198 | 0.0 | 3.0 | 0.00 | 0.01 | 0.01 | 67 | 1012.6 |
| 20260902014503 | 71 | 198 | 0.0 | 1.0 | 0.00 | 0.01 | 0.01 | 67 | 1012.5 |
| 20260902013116 | 72 | 148 | 0.0 | 3.0 | 0.00 | 0.01 | 0.01 | 63 | 1012.6 |
| 20260902012339 | 72 | 146 | 0.0 | 3.0 | 0.00 | 0.01 | 0.01 | 61 | 1012.6 |
| 20260902011502 | 72 | 193 | 1.0 | 6.0 | 0.00 | 0.01 | 0.01 | 59 | 1012.7 |
| 20260902011318 | 73 | 242 | 1.0 | 5.0 | 0.00 | 0.01 | 0.01 | 58 | 1012.6 |
| 20260902010336 | 73 | 226 | 0.0 | 5.0 | 0.00 | 0.01 | 0.01 | 60 | 1012.7 |
| 20260902010002 | 73 | 228 | 0.0 | 4.0 | 0.00 | 0.01 | 0.01 | 58 | 1012.8 |
| 20260902005356 | 74 | 203 | 1.0 | 5.0 | 0.00 | 0.01 | 0.01 | 57 | 1012.8 |
| 20260902004603 | 73 | 148 | 2.0 | 6.0 | 0.00 | 0.01 | 0.01 | 58 | 1013.0 |
| 20260902003232 | 75 | 218 | 1.0 | 5.0 | 0.00 | 0.01 | 0.01 | 54 | 1012.9 |
| 20260902003005 | 74 | 223 | 2.0 | 6.0 | 0.00 | 0.01 | 0.01 | 56 | 1012.9 |
| 20260902002209 | 76 | 254 | 0.0 | 6.0 | 0.00 | 0.01 | 0.01 | 55 | 1012.9 |
| 20260902001602 | 75 | 199 | 1.0 | 7.0 | 0.00 | 0.01 | 0.01 | 55 | 1012.9 |
| 20260902001159 | 75 | 210 | 2.0 | 6.0 | 0.00 | 0.01 | 0.01 | 57 | 1012.9 |
| 20260902000211 | 76 | 174 | 1.0 | 5.0 | 0.00 | 0.01 | 0.01 | 53 | 1012.9 |
| 20260901235202 | 76 | 214 | 2.0 | 5.0 | 0.00 | 0.01 | 0.01 | 48 | 1013.0 |
| 20260901234504 | 75 | 214 | 3.0 | 7.0 | 0.00 | 0.01 | 0.01 | 48 | 1013.0 |
| 20260901234139 | 76 | 240 | 2.0 | 6.0 | 0.00 | 0.01 | 0.01 | 50 | 1013.0 |
| 20260901233104 | 76 | 241 | 1.0 | 8.0 | 0.00 | 0.01 | 0.01 | 47 | 1013.0 |
| 20260901231503 | 77 | 208 | 3.0 | 8.0 | 0.00 | 0.01 | 0.01 | 48 | 1013.1 |
| 20260901230917 | 79 | 212 | 2.0 | 10.0 | 0.00 | 0.01 | 0.01 | 52 | 1013.1 |
| 20260901230008 | 78 | 259 | 3.0 | 11.0 | 0.00 | 0.01 | 0.01 | 51 | 1013.2 |
| 20260901225936 | 78 | 268 | 3.0 | 10.0 | 0.00 | 0.01 | 0.01 | 51 | 1013.2 |
| 20260901224943 | 79 | 146 | 2.0 | 9.0 | 0.00 | 0.01 | 0.01 | 53 | 1013.2 |
| 20260901224609 | 79 | 136 | 1.0 | 9.0 | 0.00 | 0.01 | 0.01 | 55 | 1013.2 |
| 20260901223940 | 79 | 243 | 3.0 | 9.0 | 0.00 | 0.01 | 0.01 | 53 | 1013.3 |
| 20260901223003 | 78 | 220 | 4.0 | 9.0 | 0.00 | 0.01 | 0.01 | 52 | 1013.3 |
| 20260901222906 | 79 | 259 | 3.0 | 9.0 | 0.00 | 0.01 | 0.01 | 51 | 1013.3 |
| 20260901221631 | 79 | 236 | 5.0 | 10.0 | 0.00 | 0.01 | 0.01 | 52 | 1013.4 |
| 20260901220752 | 79 | 181 | 4.0 | 9.0 | 0.00 | 0.01 | 0.01 | 53 | 1013.3 |
| 20260901220107 | 79 | 177 | 5.0 | 10.0 | 0.00 | 0.01 | 0.01 | 50 | 1013.4 |
| 20260901215744 | 80 | 196 | 4.0 | 9.0 | 0.00 | 0.01 | 0.01 | 51 | 1013.4 |
| 20260901214721 | 80 | 153 | 3.0 | 9.0 | 0.00 | 0.01 | 0.01 | 53 | 1013.4 |
| 20260901214502 | 79 | 248 | 4.0 | 9.0 | 0.00 | 0.01 | 0.01 | 50 | 1013.5 |
| 20260901213709 | 80 | 213 | 2.0 | 9.0 | 0.00 | 0.01 | 0.01 | 52 | 1013.5 |
| 20260901213107 | 80 | 202 | 1.0 | 8.0 | 0.00 | 0.01 | 0.01 | 50 | 1013.6 |
| 20260901212659 | 81 | 131 | 2.0 | 8.0 | 0.00 | 0.01 | 0.01 | 50 | 1013.6 |
| 20260901211714 | 79 | 200 | 3.0 | 9.0 | 0.00 | 0.01 | 0.01 | 52 | 1013.6 |
| 20260901211502 | 79 | 235 | 5.0 | 9.0 | 0.00 | 0.01 | 0.01 | 52 | 1013.7 |
| 20260901210004 | 79 | 210 | 5.0 | 10.0 | 0.00 | 0.01 | 0.01 | 57 | 1013.8 |
| 20260901205609 | 79 | 140 | 3.0 | 9.0 | 0.00 | 0.01 | 0.01 | 56 | 1013.7 |
| 20260901204622 | 80 | 236 | 3.0 | 9.0 | 0.00 | 0.01 | 0.01 | 56 | 1013.9 |
| 20260901204603 | 79 | 240 | 6.0 | 10.0 | 0.00 | 0.01 | 0.01 | 56 | 1013.9 |
| 20260901203636 | 80 | 162 | 3.0 | 8.0 | 0.00 | 0.01 | 0.01 | 56 | 1013.9 |
| 20260901203003 | 80 | 206 | 4.0 | 8.0 | 0.00 | 0.01 | 0.01 | 54 | 1013.9 |
| 20260901201602 | 79 | 245 | 5.0 | 10.0 | 0.00 | 0.01 | 0.01 | 57 | 1014.1 |
| 20260901201524 | 80 | 232 | 3.0 | 9.0 | 0.00 | 0.01 | 0.01 | 56 | 1014.1 |
| 20260901200541 | 80 | 196 | 3.0 | 10.0 | 0.00 | 0.01 | 0.01 | 58 | 1014.1 |
| 20260901195540 | 80 | 203 | 4.0 | 10.0 | 0.00 | 0.01 | 0.01 | 57 | 1014.2 |
| 20260901194521 | 80 | 216 | 3.0 | 9.0 | 0.00 | 0.01 | 0.01 | 56 | 1014.3 |
| 20260901194502 | 80 | 201 | 4.0 | 9.0 | 0.00 | 0.01 | 0.01 | 57 | 1014.4 |
| 20260901193520 | 79 | 274 | 3.0 | 9.0 | 0.00 | 0.01 | 0.01 | 55 | 1014.4 |
| 20260901193111 | 79 | 210 | 3.0 | 10.0 | 0.00 | 0.01 | 0.01 | 58 | 1014.5 |
| 20260901192502 | 80 | 225 | 2.0 | 9.0 | 0.00 | 0.01 | 0.01 | 57 | 1014.4 |
| 20260901191512 | 80 | 182 | 3.0 | 9.0 | 0.00 | 0.01 | 0.01 | 56 | 1014.6 |
| 20260901191508 | 79 | 212 | 3.0 | 9.0 | 0.00 | 0.01 | 0.01 | 56 | 1014.6 |
| 20260901190514 | 80 | 198 | 1.0 | 9.0 | 0.00 | 0.01 | 0.01 | 55 | 1014.6 |
| 20260901185459 | 77 | 169 | 3.0 | 9.0 | 0.00 | 0.01 | 0.01 | 60 | 1014.6 |
| 20260901184518 | 77 | 290 | 3.0 | 9.0 | 0.00 | 0.01 | 0.01 | 61 | 1014.6 |
| 20260901184503 | 77 | 214 | 3.0 | 7.0 | 0.00 | 0.01 | 0.01 | 61 | 1014.7 |
| 20260901183511 | 78 | 212 | 0.0 | 6.0 | 0.00 | 0.01 | 0.01 | 61 | 1014.7 |
| 20260901183108 | 78 | 187 | 0.0 | 4.0 | 0.00 | 0.01 | 0.01 | 61 | 1014.8 |
| 20260901182507 | 77 | 157 | 1.0 | 6.0 | 0.00 | 0.01 | 0.01 | 63 | 1014.8 |
| 20260901181503 | 75 | 215 | 2.0 | 8.0 | 0.00 | 0.01 | 0.01 | 67 | 1014.9 |
| 20260901181433 | 75 | 198 | 3.0 | 7.0 | 0.00 | 0.01 | 0.01 | 67 | 1014.8 |
| 20260901180449 | 76 | 226 | 1.0 | 6.0 | 0.00 | 0.01 | 0.01 | 66 | 1014.8 |
| 20260901180003 | 75 | 213 | 1.0 | 6.0 | 0.00 | 0.01 | 0.01 | 69 | 1014.9 |
| 20260901175430 | 75 | 198 | 2.0 | 6.0 | 0.00 | 0.01 | 0.01 | 68 | 1014.7 |
| 20260901174603 | 73 | 159 | 1.0 | 4.0 | 0.00 | 0.01 | 0.01 | 71 | 1014.9 |
| 20260901174446 | 73 | 210 | 1.0 | 7.0 | 0.00 | 0.01 | 0.01 | 70 | 1014.8 |
| 20260901173451 | 73 | 207 | 2.0 | 7.0 | 0.00 | 0.01 | 0.01 | 71 | 1014.8 |
| 20260901173004 | 72 | 189 | 2.0 | 8.0 | 0.00 | 0.01 | 0.01 | 73 | 1014.9 |
| 20260901172450 | 72 | 217 | 2.0 | 6.0 | 0.00 | 0.01 | 0.01 | 73 | 1014.8 |
| 20260901171607 | 71 | 227 | 2.0 | 6.0 | 0.00 | 0.01 | 0.01 | 74 | 1014.7 |
| 20260901171435 | 72 | 242 | 2.0 | 7.0 | 0.00 | 0.01 | 0.01 | 75 | 1014.6 |
| 20260901170408 | 71 | 213 | 2.0 | 6.0 | 0.00 | 0.01 | 0.01 | 76 | 1014.6 |
| 20260901170104 | 70 | 138 | 2.0 | 5.0 | 0.00 | 0.01 | 0.01 | 77 | 1014.6 |
| 20260901165427 | 70 | 205 | 2.0 | 6.0 | 0.00 | 0.01 | 0.01 | 78 | 1014.5 |
| 20260901164503 | 69 | 203 | 2.0 | 5.0 | 0.00 | 0.01 | 0.01 | 79 | 1014.8 |
| 20260901164449 | 69 | 205 | 1.0 | 4.0 | 0.00 | 0.01 | 0.01 | 80 | 1014.7 |
| 20260901163443 | 68 | 245 | 2.0 | 5.0 | 0.00 | 0.01 | 0.01 | 81 | 1014.7 |
| 20260901163119 | 67 | 221 | 2.0 | 6.0 | 0.00 | 0.01 | 0.01 | 82 | 1014.7 |
| 20260901162505 | 68 | 131 | 1.0 | 3.0 | 0.00 | 0.01 | 0.01 | 81 | 1014.7 |